Location: Dannhausen
(51.8650°N, 10.1026°E)
Time: 09:29:04
(UTC+00:00)

ATLAS 5 CENTAUR R/B - Pass Details

Date: 09 April 2020
Orbit: 543 x 1116 km, 63.4° (Epoch: 01 May)

Event Time Altitude Azimuth Distance (km) Brightness Sun altitude
Rises 19:59:56 0° 234° (SW) 2,764 5.1 -16.4°
Reaches altitude 10° 20:02:03 10° 237° (WSW) 1,913 4.3 -16.6°
Maximum altitude 20:06:18 66° 320° (NW) 701 2.0 -17.1°
Drops below altitude 10° 20:11:13 10° 43° (NE) 2,199 4.3 -17.7°
Sets 20:13:48 0° 46° (NE) 3,220 5.2 -18.0°
